| time (UTC) | temp F | wind direction | speed MPH | gust MPH | rain 1hr in | rain 24hr in | rain mn in | humidity % | barometer mb |
| 20260831094807 | 52 | 68 | 0.0 | 0.0 | 0.00 | 0.00 | 0.00 | 83 | 1026.9 |
| 20260831093806 | 52 | 68 | 0.0 | 0.0 | 0.00 | 0.00 | 0.00 | 83 | 1026.9 |
| 20260831093307 | 53 | 68 | 0.0 | 1.0 | 0.00 | 0.00 | 0.00 | 83 | 1027.0 |
| 20260831091806 | 53 | 68 | 0.0 | 0.0 | 0.00 | 0.00 | 0.00 | 82 | 1027.1 |
| 20260831091306 | 53 | 68 | 0.0 | 0.0 | 0.00 | 0.00 | 0.00 | 82 | 1027.3 |
| 20260831090808 | 53 | 68 | 0.0 | 0.0 | 0.00 | 0.00 | 0.00 | 82 | 1027.1 |
| 20260831090308 | 53 | 68 | 0.0 | 1.0 | 0.00 | 0.00 | 0.00 | 82 | 1027.0 |
| 20260831085807 | 53 | 68 | 0.0 | 1.0 | 0.00 | 0.00 | 0.00 | 82 | 1027.1 |
| 20260831084806 | 53 | 91 | 0.0 | 1.0 | 0.00 | 0.00 | 0.00 | 81 | 1026.9 |
| 20260831084306 | 54 | 112 | 0.0 | 1.0 | 0.00 | 0.00 | 0.00 | 80 | 1027.1 |
| 20260831083806 | 54 | 90 | 0.0 | 1.0 | 0.00 | 0.00 | 0.00 | 80 | 1027.0 |
| 20260831083307 | 54 | 90 | 0.0 | 1.0 | 0.00 | 0.00 | 0.00 | 80 | 1027.0 |
| 20260831082807 | 55 | 90 | 0.0 | 1.0 | 0.00 | 0.00 | 0.00 | 79 | 1027.1 |
| 20260831081307 | 55 | 90 | 1.0 | 1.0 | 0.00 | 0.00 | 0.00 | 77 | 1027.1 |
| 20260831080806 | 56 | 71 | 1.0 | 3.0 | 0.00 | 0.00 | 0.00 | 76 | 1027.3 |
| 20260831080307 | 56 | 135 | 1.0 | 3.0 | 0.00 | 0.00 | 0.00 | 75 | 1027.4 |
| 20260831075807 | 56 | 90 | 0.0 | 2.0 | 0.00 | 0.00 | 0.00 | 75 | 1027.2 |
| 20260831075308 | 57 | 111 | 1.0 | 2.0 | 0.00 | 0.00 | 0.00 | 74 | 1027.2 |
| 20260831074807 | 57 | 92 | 1.0 | 3.0 | 0.00 | 0.00 | 0.00 | 74 | 1027.2 |
| 20260831074308 | 58 | 112 | 1.0 | 2.0 | 0.00 | 0.00 | 0.00 | 73 | 1027.3 |
| 20260831073806 | 58 | 45 | 1.0 | 2.0 | 0.00 | 0.00 | 0.00 | 72 | 1027.3 |
| 20260831073307 | 58 | 91 | 1.0 | 2.0 | 0.00 | 0.00 | 0.00 | 72 | 1027.3 |
| 20260831072306 | 59 | 135 | 1.0 | 3.0 | 0.00 | 0.00 | 0.00 | 71 | 1027.2 |
| 20260831071309 | 60 | 110 | 2.0 | 3.0 | 0.00 | 0.00 | 0.00 | 70 | 1027.2 |
| 20260831070806 | 60 | 155 | 1.0 | 3.0 | 0.00 | 0.00 | 0.00 | 69 | 1027.4 |
| 20260831065306 | 61 | 91 | 1.0 | 3.0 | 0.00 | 0.00 | 0.00 | 68 | 1027.5 |
| 20260831064309 | 62 | 90 | 1.0 | 5.0 | 0.00 | 0.00 | 0.00 | 66 | 1027.4 |
| 20260831062806 | 63 | 116 | 2.0 | 5.0 | 0.00 | 0.00 | 0.00 | 64 | 1027.4 |
| 20260831062307 | 63 | 110 | 2.0 | 5.0 | 0.00 | 0.00 | 0.00 | 64 | 1027.5 |
| 20260831061807 | 63 | 45 | 1.0 | 5.0 | 0.00 | 0.00 | 0.00 | 64 | 1027.7 |
| 20260831055807 | 63 | 133 | 2.0 | 3.0 | 0.00 | 0.00 | 0.00 | 63 | 1028.0 |
| 20260831054806 | 63 | 112 | 2.0 | 6.0 | 0.00 | 0.00 | 0.00 | 63 | 1028.0 |
| 20260831054307 | 64 | 135 | 1.0 | 5.0 | 0.00 | 0.00 | 0.00 | 62 | 1027.9 |
| 20260831053806 | 64 | 91 | 2.0 | 5.0 | 0.00 | 0.00 | 0.00 | 62 | 1028.1 |
| 20260831053307 | 64 | 90 | 2.0 | 5.0 | 0.00 | 0.00 | 0.00 | 61 | 1028.0 |
| 20260831052307 | 64 | 135 | 2.0 | 5.0 | 0.00 | 0.00 | 0.00 | 61 | 1028.1 |
| 20260831051807 | 64 | 151 | 1.0 | 3.0 | 0.00 | 0.00 | 0.00 | 59 | 1028.2 |
| 20260831051307 | 64 | 114 | 2.0 | 3.0 | 0.00 | 0.00 | 0.00 | 60 | 1028.2 |
| 20260831050808 | 64 | 3 | 1.0 | 5.0 | 0.00 | 0.00 | 0.00 | 59 | 1028.1 |
| 20260831050308 | 65 | 22 | 1.0 | 3.0 | 0.00 | 0.00 | 0.00 | 59 | 1028.1 |
| 20260831045806 | 64 | 114 | 1.0 | 3.0 | 0.00 | 0.00 | 0.00 | 60 | 1028.2 |
| 20260831044808 | 64 | 111 | 1.0 | 3.0 | 0.00 | 0.00 | 0.00 | 59 | 1028.5 |
| 20260831044306 | 65 | 114 | 3.0 | 5.0 | 0.00 | 0.00 | 0.00 | 59 | 1028.8 |
| 20260831043806 | 64 | 155 | 1.0 | 3.0 | 0.00 | 0.00 | 0.00 | 60 | 1028.8 |
| 20260831043307 | 64 | 28 | 2.0 | 6.0 | 0.00 | 0.00 | 0.00 | 60 | 1028.9 |
| 20260831042307 | 64 | 272 | 1.0 | 2.0 | 0.00 | 0.00 | 0.00 | 60 | 1029.1 |
| 20260831041806 | 64 | 225 | 1.0 | 3.0 | 0.00 | 0.00 | 0.00 | 60 | 1028.9 |
| 20260831041306 | 63 | 131 | 2.0 | 3.0 | 0.00 | 0.00 | 0.00 | 60 | 1029.0 |
| 20260831040807 | 62 | 114 | 1.0 | 3.0 | 0.00 | 0.00 | 0.00 | 63 | 1029.2 |
| 20260831040307 | 62 | 0 | 1.0 | 3.0 | 0.00 | 0.00 | 0.00 | 63 | 1029.5 |
| 20260831035807 | 63 | 321 | 1.0 | 5.0 | 0.00 | 0.00 | 0.00 | 62 | 1029.4 |
| 20260831035307 | 62 | 225 | 2.0 | 5.0 | 0.00 | 0.00 | 0.00 | 63 | 1029.5 |
| 20260831034807 | 62 | 136 | 2.0 | 5.0 | 0.00 | 0.00 | 0.00 | 63 | 1029.6 |
| 20260831034307 | 62 | 112 | 2.0 | 7.0 | 0.00 | 0.00 | 0.00 | 63 | 1029.6 |
| 20260831033806 | 61 | 110 | 2.0 | 6.0 | 0.00 | 0.00 | 0.00 | 64 | 1029.9 |
| 20260831032808 | 61 | 176 | 2.0 | 7.0 | 0.00 | 0.00 | 0.00 | 65 | 1029.9 |
| 20260831032307 | 61 | 112 | 3.0 | 6.0 | 0.00 | 0.00 | 0.00 | 65 | 1030.0 |
| 20260831031807 | 62 | 67 | 3.0 | 6.0 | 0.00 | 0.00 | 0.00 | 64 | 1030.0 |
| 20260831030806 | 64 | 133 | 3.0 | 7.0 | 0.00 | 0.00 | 0.00 | 60 | 1030.1 |
| 20260831030306 | 65 | 90 | 1.0 | 3.0 | 0.00 | 0.00 | 0.00 | 56 | 1030.2 |
| 20260831025806 | 64 | 200 | 1.0 | 3.0 | 0.00 | 0.00 | 0.00 | 59 | 1030.3 |
| 20260831025307 | 64 | 181 | 2.0 | 5.0 | 0.00 | 0.00 | 0.00 | 59 | 1030.4 |
| 20260831024306 | 63 | 201 | 2.0 | 3.0 | 0.00 | 0.00 | 0.00 | 59 | 1030.6 |
| 20260831023806 | 63 | 335 | 1.0 | 3.0 | 0.00 | 0.00 | 0.00 | 59 | 1030.6 |
| 20260831022806 | 63 | 249 | 0.0 | 6.0 | 0.00 | 0.00 | 0.00 | 60 | 1030.8 |
| 20260831022307 | 62 | 270 | 2.0 | 6.0 | 0.00 | 0.00 | 0.00 | 61 | 1031.1 |
| 20260831021307 | 62 | 94 | 1.0 | 5.0 | 0.00 | 0.00 | 0.00 | 62 | 1031.0 |
| 20260831020807 | 61 | 243 | 1.0 | 2.0 | 0.00 | 0.00 | 0.00 | 63 | 1031.3 |
| 20260831014806 | 60 | 292 | 1.0 | 3.0 | 0.00 | 0.00 | 0.00 | 65 | 1031.8 |
| 20260831013807 | 60 | 247 | 1.0 | 3.0 | 0.00 | 0.00 | 0.00 | 64 | 1031.8 |
| 20260831013308 | 61 | 268 | 1.0 | 2.0 | 0.00 | 0.00 | 0.00 | 63 | 1031.8 |
| 20260831012306 | 60 | 245 | 1.0 | 3.0 | 0.00 | 0.00 | 0.00 | 64 | 1031.8 |
| 20260831011806 | 60 | 202 | 2.0 | 5.0 | 0.00 | 0.00 | 0.00 | 65 | 1032.0 |
| 20260831011307 | 60 | 130 | 1.0 | 3.0 | 0.00 | 0.00 | 0.00 | 64 | 1032.1 |
| 20260831010806 | 59 | 225 | 2.0 | 3.0 | 0.00 | 0.00 | 0.00 | 66 | 1032.0 |
| 20260831010306 | 59 | 242 | 1.0 | 3.0 | 0.00 | 0.00 | 0.00 | 68 | 1032.1 |
| 20260831005806 | 58 | 226 | 2.0 | 3.0 | 0.00 | 0.00 | 0.00 | 68 | 1032.2 |
| 20260831004806 | 58 | 250 | 1.0 | 3.0 | 0.00 | 0.00 | 0.00 | 69 | 1032.3 |
| 20260831004306 | 58 | 228 | 1.0 | 3.0 | 0.00 | 0.00 | 0.00 | 68 | 1032.3 |
| 20260831003806 | 58 | 158 | 2.0 | 3.0 | 0.00 | 0.00 | 0.00 | 67 | 1032.3 |
| 20260831003306 | 59 | 160 | 2.0 | 5.0 | 0.00 | 0.00 | 0.00 | 67 | 1032.4 |
| 20260831002806 | 59 | 249 | 1.0 | 2.0 | 0.00 | 0.00 | 0.00 | 67 | 1032.3 |
| 20260831002307 | 59 | 269 | 1.0 | 3.0 | 0.00 | 0.00 | 0.00 | 66 | 1032.5 |
| 20260831001807 | 59 | 246 | 2.0 | 5.0 | 0.00 | 0.00 | 0.00 | 68 | 1032.5 |
| 20260831001307 | 59 | 181 | 2.0 | 3.0 | 0.00 | 0.00 | 0.00 | 67 | 1032.5 |
| 20260831000807 | 57 | 181 | 1.0 | 3.0 | 0.00 | 0.00 | 0.00 | 70 | 1032.7 |
| 20260831000307 | 56 | 272 | 1.0 | 2.0 | 0.00 | 0.00 | 0.00 | 73 | 1032.6 |
| 20260830235806 | 56 | 207 | 1.0 | 3.0 | 0.00 | 0.00 | 0.00 | 74 | 1032.6 |
| 20260830235307 | 56 | 203 | 1.0 | 3.0 | 0.00 | 0.00 | 0.00 | 73 | 1032.6 |
| 20260830234806 | 55 | 68 | 0.0 | 1.0 | 0.00 | 0.00 | 0.00 | 74 | 1032.6 |
| 20260830234306 | 55 | 115 | 0.0 | 1.0 | 0.00 | 0.00 | 0.00 | 75 | 1032.6 |
| 20260830233307 | 54 | 291 | 1.0 | 3.0 | 0.00 | 0.00 | 0.00 | 77 | 1032.5 |
| 20260830232306 | 53 | 335 | 1.0 | 2.0 | 0.00 | 0.00 | 0.00 | 79 | 1032.5 |
| 20260830231806 | 53 | 180 | 1.0 | 3.0 | 0.00 | 0.00 | 0.00 | 79 | 1032.8 |
| 20260830231307 | 53 | 247 | 1.0 | 3.0 | 0.00 | 0.00 | 0.00 | 79 | 1032.7 |
| 20260830230807 | 53 | 269 | 1.0 | 5.0 | 0.00 | 0.00 | 0.00 | 80 | 1032.6 |
| 20260830230308 | 53 | 270 | 2.0 | 5.0 | 0.00 | 0.00 | 0.00 | 79 | 1032.6 |
| 20260830225806 | 53 | 291 | 1.0 | 2.0 | 0.00 | 0.00 | 0.00 | 80 | 1032.6 |
| 20260830225308 | 53 | 225 | 1.0 | 2.0 | 0.00 | 0.00 | 0.00 | 80 | 1032.5 |
| 20260830224807 | 52 | 272 | 1.0 | 3.0 | 0.00 | 0.00 | 0.00 | 81 | 1032.5 |
| 20260830224307 | 52 | 248 | 1.0 | 2.0 | 0.00 | 0.00 | 0.00 | 82 | 1032.6 |
| 20260830223806 | 52 | 248 | 0.0 | 3.0 | 0.00 | 0.00 | 0.00 | 82 | 1032.8 |
| 20260830223307 | 51 | 225 | 1.0 | 3.0 | 0.00 | 0.00 | 0.00 | 82 | 1033.0 |
| 20260830222806 | 51 | 263 | 1.0 | 2.0 | 0.00 | 0.00 | 0.00 | 83 | 1032.7 |
| 20260830222307 | 51 | 271 | 1.0 | 2.0 | 0.00 | 0.00 | 0.00 | 83 | 1032.7 |
| 20260830221308 | 51 | 269 | 1.0 | 3.0 | 0.00 | 0.00 | 0.00 | 84 | 1032.6 |
| 20260830220806 | 51 | 286 | 1.0 | 2.0 | 0.00 | 0.00 | 0.00 | 84 | 1032.7 |
| 20260830220306 | 50 | 225 | 1.0 | 2.0 | 0.00 | 0.00 | 0.00 | 85 | 1032.6 |
| 20260830215807 | 50 | 250 | 1.0 | 2.0 | 0.00 | 0.00 | 0.00 | 85 | 1032.6 |
| 20260830215306 | 50 | 269 | 1.0 | 2.0 | 0.00 | 0.00 | 0.00 | 86 | 1032.7 |
| 20260830214806 | 50 | 270 | 0.0 | 2.0 | 0.00 | 0.00 | 0.00 | 86 | 1032.7 |
| 20260830214307 | 49 | 226 | 1.0 | 2.0 | 0.00 | 0.00 | 0.00 | 87 | 1032.8 |
| 20260830213806 | 49 | 270 | 1.0 | 2.0 | 0.00 | 0.00 | 0.00 | 87 | 1032.6 |
| 20260830213306 | 49 | 269 | 0.0 | 1.0 | 0.00 | 0.00 | 0.00 | 87 | 1032.6 |
| 20260830212806 | 49 | 248 | 0.0 | 1.0 | 0.00 | 0.00 | 0.00 | 88 | 1032.6 |
| 20260830212306 | 49 | 269 | 0.0 | 1.0 | 0.00 | 0.00 | 0.00 | 88 | 1032.6 |
| 20260830211808 | 48 | 225 | 0.0 | 1.0 | 0.00 | 0.00 | 0.00 | 88 | 1032.4 |
| 20260830211307 | 48 | 228 | 1.0 | 1.0 | 0.00 | 0.00 | 0.00 | 88 | 1032.5 |
| 20260830210807 | 48 | 225 | 0.0 | 1.0 | 0.00 | 0.00 | 0.00 | 88 | 1032.3 |
| 20260830210307 | 48 | 227 | 0.0 | 1.0 | 0.00 | 0.00 | 0.00 | 88 | 1032.5 |
| 20260830205806 | 48 | 248 | 0.0 | 1.0 | 0.00 | 0.00 | 0.00 | 88 | 1032.4 |
| 20260830205306 | 48 | 269 | 0.0 | 1.0 | 0.00 | 0.00 | 0.00 | 88 | 1032.3 |
| 20260830204807 | 48 | 270 | 0.0 | 1.0 | 0.00 | 0.00 | 0.00 | 88 | 1032.2 |
| 20260830204307 | 48 | 225 | 0.0 | 0.0 | 0.00 | 0.00 | 0.00 | 88 | 1032.6 |
| 20260830203806 | 48 | 225 | 0.0 | 0.0 | 0.00 | 0.00 | 0.00 | 88 | 1032.4 |
| 20260830202307 | 48 | 227 | 0.0 | 1.0 | 0.00 | 0.00 | 0.00 | 87 | 1032.4 |
| 20260830201807 | 49 | 270 | 0.0 | 0.0 | 0.00 | 0.00 | 0.00 | 86 | 1032.3 |
| 20260830201307 | 49 | 270 | 0.0 | 0.0 | 0.00 | 0.00 | 0.00 | 86 | 1032.2 |
| 20260830200806 | 49 | 270 | 0.0 | 0.0 | 0.00 | 0.00 | 0.00 | 86 | 1032.2 |
| 20260830200307 | 49 | 225 | 0.0 | 2.0 | 0.00 | 0.00 | 0.00 | 86 | 1032.1 |
| 20260830195807 | 49 | 227 | 0.0 | 1.0 | 0.00 | 0.00 | 0.00 | 86 | 1032.2 |
| 20260830195306 | 49 | 265 | 1.0 | 1.0 | 0.00 | 0.00 | 0.00 | 86 | 1032.1 |
| 20260830194806 | 50 | 202 | 0.0 | 1.0 | 0.00 | 0.00 | 0.00 | 86 | 1032.1 |
| 20260830193808 | 50 | 270 | 0.0 | 2.0 | 0.00 | 0.00 | 0.00 | 85 | 1032.2 |
| 20260830192807 | 50 | 270 | 0.0 | 1.0 | 0.00 | 0.00 | 0.00 | 85 | 1032.2 |
| 20260830191807 | 50 | 248 | 0.0 | 1.0 | 0.00 | 0.00 | 0.00 | 85 | 1032.0 |
| 20260830190806 | 50 | 291 | 0.0 | 2.0 | 0.00 | 0.00 | 0.00 | 86 | 1032.1 |
| 20260830190307 | 50 | 292 | 0.0 | 2.0 | 0.00 | 0.00 | 0.00 | 86 | 1032.3 |
| 20260830185307 | 50 | 225 | 1.0 | 3.0 | 0.00 | 0.00 | 0.00 | 87 | 1032.4 |
| 20260830184308 | 51 | 225 | 0.0 | 1.0 | 0.00 | 0.00 | 0.00 | 88 | 1032.4 |
| 20260830183807 | 51 | 181 | 0.0 | 1.0 | 0.00 | 0.00 | 0.00 | 89 | 1032.1 |
| 20260830183307 | 51 | 225 | 0.0 | 1.0 | 0.00 | 0.00 | 0.00 | 89 | 1032.3 |
| 20260830182806 | 51 | 180 | 0.0 | 1.0 | 0.00 | 0.00 | 0.00 | 89 | 1032.2 |
| 20260830182306 | 51 | 180 | 0.0 | 1.0 | 0.00 | 0.00 | 0.00 | 89 | 1032.2 |
| 20260830181807 | 51 | 182 | 1.0 | 1.0 | 0.00 | 0.00 | 0.00 | 89 | 1032.3 |
| 20260830180306 | 51 | 225 | 1.0 | 2.0 | 0.00 | 0.00 | 0.00 | 89 | 1032.2 |
| 20260830175808 | 51 | 226 | 1.0 | 2.0 | 0.00 | 0.00 | 0.00 | 89 | 1032.2 |
| 20260830175307 | 51 | 226 | 0.0 | 1.0 | 0.00 | 0.00 | 0.00 | 89 | 1032.2 |
| 20260830174807 | 51 | 248 | 0.0 | 2.0 | 0.00 | 0.00 | 0.00 | 89 | 1032.3 |
| 20260830174307 | 51 | 224 | 1.0 | 2.0 | 0.00 | 0.00 | 0.00 | 89 | 1032.3 |
| 20260830173807 | 51 | 269 | 1.0 | 1.0 | 0.00 | 0.00 | 0.00 | 89 | 1032.3 |
| 20260830173307 | 51 | 248 | 1.0 | 2.0 | 0.00 | 0.00 | 0.00 | 89 | 1032.4 |
| 20260830172807 | 51 | 201 | 1.0 | 2.0 | 0.00 | 0.00 | 0.00 | 89 | 1032.5 |
| 20260830171806 | 51 | 248 | 1.0 | 2.0 | 0.00 | 0.00 | 0.00 | 89 | 1032.5 |
| 20260830170806 | 52 | 207 | 1.0 | 2.0 | 0.00 | 0.00 | 0.00 | 89 | 1032.4 |
| 20260830170306 | 52 | 225 | 1.0 | 2.0 | 0.00 | 0.00 | 0.00 | 89 | 1032.5 |
| 20260830164807 | 52 | 202 | 1.0 | 2.0 | 0.00 | 0.00 | 0.00 | 88 | 1032.5 |
| 20260830164306 | 52 | 247 | 1.0 | 1.0 | 0.00 | 0.00 | 0.00 | 88 | 1032.6 |
| 20260830163806 | 52 | 201 | 1.0 | 2.0 | 0.00 | 0.00 | 0.00 | 88 | 1032.7 |
| 20260830163307 | 52 | 157 | 1.0 | 2.0 | 0.00 | 0.00 | 0.00 | 89 | 1032.8 |
| 20260830162807 | 52 | 247 | 1.0 | 1.0 | 0.00 | 0.00 | 0.00 | 89 | 1032.7 |
| 20260830162307 | 52 | 224 | 1.0 | 2.0 | 0.00 | 0.00 | 0.00 | 89 | 1032.6 |
| 20260830161807 | 52 | 248 | 0.0 | 1.0 | 0.00 | 0.00 | 0.00 | 89 | 1032.5 |
| 20260830161307 | 52 | 248 | 1.0 | 1.0 | 0.00 | 0.00 | 0.00 | 89 | 1032.6 |
| 20260830160807 | 52 | 292 | 0.0 | 1.0 | 0.00 | 0.00 | 0.00 | 90 | 1032.7 |
| 20260830160308 | 52 | 292 | 0.0 | 1.0 | 0.00 | 0.00 | 0.00 | 90 | 1032.7 |
| 20260830155806 | 52 | 292 | 0.0 | 0.0 | 0.00 | 0.00 | 0.00 | 90 | 1032.7 |
| 20260830155306 | 52 | 293 | 0.0 | 1.0 | 0.00 | 0.00 | 0.00 | 90 | 1032.7 |
| 20260830154806 | 52 | 316 | 0.0 | 1.0 | 0.00 | 0.00 | 0.00 | 90 | 1032.6 |
| 20260830154307 | 52 | 315 | 0.0 | 1.0 | 0.00 | 0.00 | 0.00 | 90 | 1032.8 |
| 20260830153806 | 52 | 358 | 0.0 | 1.0 | 0.00 | 0.00 | 0.00 | 90 | 1032.7 |
| 20260830153306 | 52 | 315 | 0.0 | 1.0 | 0.00 | 0.00 | 0.00 | 90 | 1032.7 |
| 20260830152307 | 52 | 271 | 0.0 | 1.0 | 0.00 | 0.00 | 0.00 | 90 | 1032.7 |
| 20260830151807 | 52 | 316 | 0.0 | 1.0 | 0.00 | 0.00 | 0.00 | 89 | 1032.6 |
| 20260830151306 | 52 | 335 | 1.0 | 1.0 | 0.00 | 0.00 | 0.00 | 89 | 1032.7 |
| 20260830150807 | 51 | 338 | 1.0 | 1.0 | 0.00 | 0.00 | 0.00 | 89 | 1032.7 |
| 20260830150308 | 51 | 294 | 0.0 | 0.0 | 0.00 | 0.00 | 0.00 | 89 | 1032.7 |
| 20260830145806 | 51 | 338 | 0.0 | 1.0 | 0.00 | 0.00 | 0.00 | 89 | 1032.6 |
| 20260830145307 | 51 | 270 | 0.0 | 1.0 | 0.00 | 0.00 | 0.00 | 89 | 1032.8 |
| 20260830144806 | 51 | 271 | 0.0 | 2.0 | 0.00 | 0.00 | 0.00 | 89 | 1032.8 |
| 20260830144307 | 51 | 338 | 1.0 | 2.0 | 0.00 | 0.00 | 0.00 | 90 | 1032.6 |
| 20260830143807 | 51 | 355 | 1.0 | 1.0 | 0.00 | 0.00 | 0.00 | 90 | 1032.6 |
| 20260830143307 | 51 | 293 | 0.0 | 1.0 | 0.00 | 0.00 | 0.00 | 90 | 1032.8 |
| 20260830142806 | 51 | 337 | 0.0 | 1.0 | 0.00 | 0.00 | 0.00 | 90 | 1032.7 |
| 20260830142306 | 51 | 269 | 0.0 | 1.0 | 0.00 | 0.00 | 0.00 | 90 | 1032.8 |
| 20260830141807 | 51 | 293 | 0.0 | 1.0 | 0.00 | 0.00 | 0.00 | 90 | 1032.8 |
| 20260830141307 | 51 | 315 | 0.0 | 0.0 | 0.00 | 0.00 | 0.00 | 90 | 1032.8 |
| 20260830140806 | 51 | 316 | 1.0 | 1.0 | 0.00 | 0.00 | 0.00 | 90 | 1032.7 |
| 20260830135808 | 50 | 316 | 0.0 | 1.0 | 0.00 | 0.00 | 0.00 | 90 | 1032.7 |
| 20260830135308 | 50 | 1 | 1.0 | 2.0 | 0.00 | 0.00 | 0.00 | 90 | 1032.8 |
| 20260830134807 | 50 | 338 | 0.0 | 2.0 | 0.00 | 0.00 | 0.00 | 90 | 1033.0 |
| 20260830134306 | 50 | 1 | 1.0 | 2.0 | 0.00 | 0.00 | 0.00 | 91 | 1032.9 |
| 20260830133811 | 50 | 315 | 0.0 | 0.0 | 0.00 | 0.00 | 0.00 | 91 | 1033.0 |
| 20260830133306 | 50 | 315 | 0.0 | 1.0 | 0.00 | 0.00 | 0.00 | 91 | 1033.1 |
| 20260830132807 | 49 | 315 | 0.0 | 1.0 | 0.00 | 0.00 | 0.00 | 91 | 1033.2 |
| 20260830132307 | 49 | 20 | 1.0 | 1.0 | 0.00 | 0.00 | 0.00 | 92 | 1033.2 |
| 20260830131806 | 49 | 338 | 0.0 | 1.0 | 0.00 | 0.00 | 0.00 | 92 | 1033.4 |
| 20260830131307 | 49 | 316 | 0.0 | 0.0 | 0.00 | 0.00 | 0.00 | 92 | 1033.3 |
| 20260830130807 | 49 | 338 | 0.0 | 0.0 | 0.00 | 0.00 | 0.00 | 92 | 1033.4 |
| 20260830130306 | 48 | 338 | 0.0 | 0.0 | 0.00 | 0.00 | 0.00 | 92 | 1033.2 |
| 20260830125806 | 48 | 338 | 0.0 | 0.0 | 0.00 | 0.00 | 0.00 | 92 | 1033.3 |
| 20260830125307 | 48 | 338 | 0.0 | 0.0 | 0.00 | 0.00 | 0.00 | 92 | 1033.3 |
| 20260830124807 | 47 | 338 | 0.0 | 0.0 | 0.00 | 0.00 | 0.00 | 92 | 1033.5 |
| 20260830124307 | 47 | 338 | 0.0 | 1.0 | 0.00 | 0.00 | 0.00 | 92 | 1033.4 |
| 20260830123806 | 46 | 0 | 0.0 | 0.0 | 0.00 | 0.00 | 0.00 | 92 | 1033.5 |
| 20260830123306 | 46 | 0 | 0.0 | 0.0 | 0.00 | 0.00 | 0.00 | 92 | 1033.5 |
| 20260830122806 | 46 | 0 | 0.0 | 0.0 | 0.00 | 0.00 | 0.00 | 91 | 1033.4 |
| 20260830121806 | 46 | 112 | 0.0 | 1.0 | 0.00 | 0.00 | 0.00 | 91 | 1033.3 |
| 20260830121307 | 46 | 112 | 0.0 | 0.0 | 0.00 | 0.00 | 0.00 | 91 | 1033.2 |
| 20260830120807 | 46 | 112 | 0.0 | 0.0 | 0.00 | 0.00 | 0.00 | 91 | 1033.2 |
| 20260830120307 | 46 | 112 | 0.0 | 0.0 | 0.00 | 0.00 | 0.00 | 91 | 1033.2 |
| 20260830115807 | 47 | 112 | 0.0 | 0.0 | 0.00 | 0.00 | 0.00 | 91 | 1033.1 |
| 20260830115307 | 46 | 112 | 0.0 | 0.0 | 0.00 | 0.00 | 0.00 | 91 | 1033.1 |
| 20260830114306 | 47 | 112 | 0.0 | 0.0 | 0.00 | 0.00 | 0.00 | 91 | 1033.1 |
| 20260830113308 | 47 | 112 | 0.0 | 0.0 | 0.00 | 0.00 | 0.00 | 91 | 1033.1 |
| 20260830112807 | 47 | 112 | 0.0 | 0.0 | 0.00 | 0.00 | 0.00 | 90 | 1033.0 |
| 20260830112306 | 48 | 112 | 0.0 | 0.0 | 0.00 | 0.00 | 0.00 | 90 | 1033.1 |
| 20260830111806 | 48 | 112 | 0.0 | 0.0 | 0.00 | 0.00 | 0.00 | 90 | 1033.0 |
| 20260830111306 | 48 | 112 | 0.0 | 0.0 | 0.00 | 0.00 | 0.00 | 90 | 1033.1 |
| 20260830110808 | 48 | 112 | 0.0 | 0.0 | 0.00 | 0.00 | 0.00 | 90 | 1033.0 |
| 20260830110307 | 48 | 112 | 0.0 | 0.0 | 0.00 | 0.00 | 0.00 | 90 | 1033.0 |
| 20260830105806 | 48 | 112 | 0.0 | 0.0 | 0.00 | 0.00 | 0.00 | 90 | 1033.0 |
| 20260830105306 | 48 | 112 | 0.0 | 0.0 | 0.00 | 0.00 | 0.00 | 90 | 1033.1 |
| 20260830104807 | 48 | 112 | 0.0 | 0.0 | 0.00 | 0.00 | 0.00 | 90 | 1032.9 |
| 20260830104307 | 48 | 112 | 0.0 | 0.0 | 0.00 | 0.00 | 0.00 | 89 | 1033.0 |
| 20260830103806 | 48 | 112 | 0.0 | 0.0 | 0.00 | 0.00 | 0.00 | 89 | 1032.9 |
| 20260830102307 | 49 | 112 | 0.0 | 0.0 | 0.00 | 0.00 | 0.00 | 89 | 1032.9 |
| 20260830101807 | 49 | 112 | 0.0 | 0.0 | 0.00 | 0.00 | 0.00 | 88 | 1032.9 |
| 20260830101306 | 49 | 112 | 0.0 | 0.0 | 0.00 | 0.00 | 0.00 | 88 | 1032.8 |
| 20260830100306 | 50 | 112 | 0.0 | 0.0 | 0.00 | 0.00 | 0.00 | 86 | 1032.7 |
| 20260830095806 | 50 | 112 | 0.0 | 0.0 | 0.00 | 0.00 | 0.00 | 86 | 1032.7 |